OBJECT F

Satellite information

Favourite Embed

Satellite Type and Status

UNKNOWNDECAYED

Key statistics

Satellite OBJECT F at a glance.

Uptime

2749

Days in orbit

Revolutions

≈ 16.4

Per day

Orbit

SSO

Sun Synchronous Orbit

Inclination

97.3

Latest

Satellite identification and parameters

Extended collection of information and parameters for OBJECT F.

Object identification

Identified? True

Debris? False

Object name: OBJECT F

International designator: 2017-042F

Object number (NORAD): 42830

Object ID (CCSDS): 42830

Country: TO BE DETERMINED/UNKNOWN (TBD)

Current information (Y/N): Y

RCS size: SMALL

Orbital parameters

Decay date: Jan. 22, 2025

Period: 87.794 minutes

Inclination: 97.3125 deg

SMA: 6543.386 km

Apoapsis: 169.985 km

Periapsis: 160.516 km

RAAN: 220.4047 deg

Eccentricy: 0.0007235

Argument of periapsis: 314.2941 deg

Mean anomaly: 45.7764 deg

Mean motion: 16.40208236 rev/day

Mean motion (dot): 0.16566363 rev/day2

B* drag term: 0.0013045 1/REarth

Two-line elements (TLE)

Creation date: Jan. 16, 2025, 5:20 a.m.

Reference frame: TEME

Reference center: EARTH

Epoch: Jan. 15, 2025, 7:03 p.m. UTC

TLE line 0: 0 OBJECT F

TLE line 1: 1 42830U 17042F 25015.79437342 .16566363 23380-5 13045-2 0 9995

TLE line 2: 2 42830 97.3125 220.4047 0007235 314.2941 45.7764 16.40208236410815

Live tracking on map

Satellite OBJECT F has decayed and is no longer in orbit. No tracking available.

In-orbit conjunctions

Satellite OBJECT F has decayed and is no longer in orbit. No conjunctions available.

Associated space launch

Kanopus-V-IK is a small Russian remote sensing satellite for monitoring wildfires. Weighing about 473 kg, it is intended for 5 years of operation in a 510 km sun-synchronous orbit.

OBJECT F was lifted into orbit during the mission ‘Soyuz-2.1a/Fregat | Kanopus-V-IK’, on board a Soyuz 2.1a/Fregat-M space rocket.

The launch took place on July 14, 2017, 6:36 a.m. from 31/6.

For more information about the launch, click the button.

Launch to space Soyuz-2.1a/Fregat | Kanopus-V-IK
Soyuz-2.1a/Fregat | Kanopus-V-IK

Agency: N/A

Status: Launch was a Partial Failure

Launch date: July 14, 2017, 6:36 a.m. UTC

Rocket: Soyuz 2.1a/Fregat-M

Launch pad: 31/6

Location: Baikonur Cosmodrome, Republic of Kazakhstan

...

Latest news about this satellite

There are no fresh news available about this satellite. Check back as we update our databases every day.


Newsletter sign-up

Weekly statistics, charts and insights to help you stay on top of the space industry.